Location: Bédeille
(43.0872°N, 1.1041°E)
Time: 02:42:25
(UTC+00:00)

Okean O Rocket - Pass Details

Date: 03 February 2023
Orbit: 620 x 643 km, 98.1° (Epoch: 27 March)

Event Time Altitude Azimuth Distance (km) Brightness Sun altitude
Rises 19:13:30 0° 170° (S) 2,903 4.9 -22.7°
Reaches altitude 10° 19:15:40 10° 172° (S) 2,004 4.1 -23.1°
Maximum altitude 19:20:02 74° 258° (WSW) 664 1.7 -23.9°
Drops below altitude 10° 19:24:28 10° 343° (NNW) 2,035 4.4 -24.7°
Sets 19:26:42 0° 346° (NNW) 2,952 5.2 -25.1°
